Location: Goettingen
(51.5300°N, 9.9433°E)
Time: 11:36:20
(UTC+02:00)

ISS - Pass Details

Date: 15 May 2025
Orbit: 416 x 419 km, 51.6° (Epoch: 18 May)

Event Time Altitude Azimuth Distance (km) Brightness Sun altitude
Rises 23:49:32 0° 280° (W) 2,361 0.5 -16.8°
Reaches altitude 10° 23:51:38 10° 279° (W) 1,497 -0.6 -17.0°
Maximum altitude 23:55:00 78° 192° (SSW) 431 -3.9 -17.2°
Enters shadow 23:55:59 42° 115° (ESE) 605 -3.3 -17.2°
